RYR8771 LIBC-LIMF

Flight info

Callsign RYR8771
Flight time N/A
Altitude 38000
Route CDC M729 AGNIS DCT DELER DCT PEVIR DCT EDOPA DCT MALOG DCT VEXUV DCT PNZ DCT RIFFI DCT ELVIN DCT LUNAK DCT RAVAL DCT MEDAL DCT GILIO DCT ELB DCT LAGEN
Aircraft B738/M-SDE3FGILRWY/SB1

Departure

Time N/A
Airport Crotone Sant'Anna Pythagoras Airport (LIBC)

Arrival

Time 2026-05-05 18:15
Airport Turin Airport (LIMF)
Time Latitude Longitude Altitude Speed Heading
2026-05-05 17:32 42.31386 11.00269 37996 ft 398 kts 306°
2026-05-05 17:33 42.35173 10.94809 37995 ft 398 kts 306°
2026-05-05 17:33 42.38952 10.89350 37993 ft 398 kts 306°
2026-05-05 17:34 42.42736 10.83881 37994 ft 398 kts 306°
2026-05-05 17:34 42.46528 10.78389 37999 ft 401 kts 306°
2026-05-05 17:35 42.50343 10.72853 37996 ft 403 kts 306°
2026-05-05 17:35 42.54175 10.67280 37992 ft 405 kts 306°
2026-05-05 17:36 42.58020 10.61679 37992 ft 406 kts 306°
2026-05-05 17:36 42.61867 10.56064 37978 ft 405 kts 306°
2026-05-05 17:37 42.65648 10.50539 37979 ft 399 kts 306°
2026-05-05 17:37 42.69414 10.45018 37980 ft 397 kts 306°
2026-05-05 17:38 42.73186 10.39537 37980 ft 399 kts 309°
2026-05-05 17:38 42.77490 10.34657 37975 ft 404 kts 313°
2026-05-05 17:39 42.81876 10.29880 37971 ft 404 kts 313°
2026-05-05 17:39 42.86263 10.25070 37980 ft 405 kts 313°
2026-05-05 17:40 42.90654 10.20220 37976 ft 406 kts 313°
2026-05-05 17:40 42.95058 10.15335 37977 ft 408 kts 313°
2026-05-05 17:41 42.99451 10.10451 37976 ft 410 kts 313°
2026-05-05 17:41 43.03877 10.05522 37976 ft 411 kts 313°
2026-05-05 17:42 43.08318 10.00567 37969 ft 413 kts 313°
2026-05-05 17:42 43.12770 9.95590 37977 ft 414 kts 313°
2026-05-05 17:43 43.17229 9.90595 37968 ft 414 kts 313°
2026-05-05 17:43 43.21691 9.85587 37971 ft 415 kts 313°
2026-05-05 17:44 43.26152 9.80572 37960 ft 415 kts 313°
2026-05-05 17:44 43.30612 9.75547 37973 ft 415 kts 313°
2026-05-05 17:45 43.35069 9.70515 37963 ft 414 kts 313°
2026-05-05 17:45 43.39541 9.65452 37470 ft 419 kts 312°
2026-05-05 17:45 43.41778 9.62921 37093 ft 413 kts 312°
2026-05-05 17:46 43.43961 9.60452 36692 ft 409 kts 312°
2026-05-05 17:46 43.46150 9.57972 36304 ft 405 kts 311°
2026-05-05 17:46 43.48313 9.55519 35926 ft 400 kts 311°
2026-05-05 17:46 43.50457 9.53083 35540 ft 397 kts 311°
2026-05-05 17:47 43.52580 9.50666 35150 ft 394 kts 310°
2026-05-05 17:47 43.53979 9.49072 34901 ft 392 kts 310°
2026-05-05 17:47 43.56072 9.46685 34520 ft 389 kts 310°
2026-05-05 17:47 43.58825 9.43542 34019 ft 386 kts 309°
2026-05-05 17:48 43.60219 9.41949 33722 ft 384 kts 309°
2026-05-05 17:48 43.62269 9.39604 33313 ft 382 kts 309°
2026-05-05 17:48 43.64304 9.37275 32924 ft 379 kts 309°
2026-05-05 17:48 43.66324 9.34961 32544 ft 375 kts 309°
2026-05-05 17:49 43.68305 9.32690 32168 ft 373 kts 309°
2026-05-05 17:49 43.70294 9.30408 31815 ft 370 kts 309°
2026-05-05 17:49 43.72266 9.28143 31456 ft 367 kts 309°
2026-05-05 17:49 43.74229 9.25886 31099 ft 364 kts 309°
2026-05-05 17:50 43.76173 9.23649 30745 ft 362 kts 309°
2026-05-05 17:50 43.78102 9.21427 30397 ft 360 kts 309°
2026-05-05 17:50 43.80019 9.19217 30049 ft 358 kts 309°
2026-05-05 17:50 43.81922 9.17020 29642 ft 356 kts 309°
2026-05-05 17:51 43.83817 9.14833 29250 ft 353 kts 310°
2026-05-05 17:51 43.85695 9.12663 28870 ft 350 kts 310°
2026-05-05 17:51 43.87556 9.10512 28500 ft 347 kts 310°
2026-05-05 17:51 43.89380 9.08401 28143 ft 344 kts 310°
2026-05-05 17:52 43.91211 9.06280 27783 ft 342 kts 310°
2026-05-05 17:52 43.93035 9.04165 27425 ft 339 kts 310°
2026-05-05 17:52 43.94836 9.02074 27075 ft 337 kts 310°
2026-05-05 17:52 43.96633 8.99986 26731 ft 337 kts 310°
2026-05-05 17:53 43.98427 8.97898 26380 ft 336 kts 311°
2026-05-05 17:53 44.00225 8.95803 26034 ft 339 kts 311°
2026-05-05 17:53 44.01715 8.94060 25763 ft 348 kts 311°
2026-05-05 17:53 44.03577 8.91885 25357 ft 350 kts 311°
2026-05-05 17:54 44.05437 8.89718 25003 ft 348 kts 312°
2026-05-05 17:54 44.07267 8.87587 24629 ft 348 kts 312°
2026-05-05 17:54 44.09118 8.85428 24264 ft 347 kts 312°
2026-05-05 17:54 44.10974 8.83261 23900 ft 347 kts 312°
2026-05-05 17:55 44.12820 8.81102 23516 ft 347 kts 313°
2026-05-05 17:55 44.14667 8.78940 23101 ft 346 kts 313°
2026-05-05 17:55 44.16506 8.76787 22722 ft 344 kts 313°
2026-05-05 17:55 44.18313 8.74669 22356 ft 342 kts 313°
2026-05-05 17:56 44.20154 8.72509 21989 ft 341 kts 313°
2026-05-05 17:56 44.21938 8.70413 21635 ft 339 kts 313°
2026-05-05 17:56 44.23738 8.68297 21282 ft 337 kts 313°
2026-05-05 17:56 44.25527 8.66191 20929 ft 335 kts 313°
2026-05-05 17:57 44.27305 8.64097 20579 ft 334 kts 313°
2026-05-05 17:57 44.29075 8.62010 20237 ft 332 kts 313°
2026-05-05 17:57 44.30838 8.59929 19886 ft 331 kts 313°
2026-05-05 17:57 44.32593 8.57856 19541 ft 330 kts 313°
2026-05-05 17:58 44.34343 8.55789 19191 ft 329 kts 313°
2026-05-05 17:58 44.36065 8.53701 18863 ft 326 kts 310°
2026-05-05 17:58 44.37660 8.51500 18528 ft 318 kts 308°
2026-05-05 17:58 44.39182 8.49279 18005 ft 315 kts 307°
2026-05-05 17:59 44.40683 8.47057 17416 ft 314 kts 307°
2026-05-05 17:59 44.42180 8.44847 16894 ft 311 kts 307°
2026-05-05 17:59 44.43667 8.42662 16377 ft 308 kts 308°
2026-05-05 17:59 44.45122 8.40533 15880 ft 305 kts 308°
2026-05-05 18:00 44.46579 8.38408 15475 ft 300 kts 308°
2026-05-05 18:00 44.48008 8.36330 15141 ft 292 kts 308°
2026-05-05 18:00 44.49402 8.34304 14815 ft 286 kts 308°
2026-05-05 18:00 44.50764 8.32326 14507 ft 278 kts 308°
2026-05-05 18:01 44.52096 8.30387 14198 ft 276 kts 308°
2026-05-05 18:01 44.53438 8.28429 13928 ft 281 kts 308°
2026-05-05 18:01 44.54813 8.26423 13606 ft 290 kts 309°
2026-05-05 18:01 44.56222 8.24362 13250 ft 296 kts 309°
2026-05-05 18:02 44.57645 8.22287 12897 ft 295 kts 309°
2026-05-05 18:02 44.59067 8.20213 12566 ft 294 kts 309°
2026-05-05 18:02 44.60484 8.18147 12225 ft 293 kts 310°
2026-05-05 18:02 44.61893 8.16091 11905 ft 292 kts 310°
2026-05-05 18:03 44.63296 8.14041 11570 ft 290 kts 310°
2026-05-05 18:03 44.64675 8.12025 11262 ft 289 kts 310°
2026-05-05 18:03 44.66083 8.09964 10944 ft 288 kts 310°
2026-05-05 18:03 44.67452 8.07959 10631 ft 288 kts 310°
2026-05-05 18:04 44.68836 8.05929 10304 ft 288 kts 310°
2026-05-05 18:04 44.70214 8.03909 10079 ft 283 kts 310°
2026-05-05 18:04 44.71565 8.01927 9841 ft 279 kts 311°
2026-05-05 18:04 44.72908 7.99955 9518 ft 278 kts 311°
2026-05-05 18:05 44.74247 7.97985 9201 ft 277 kts 311°
2026-05-05 18:05 44.75580 7.96025 8897 ft 276 kts 311°
2026-05-05 18:05 44.76907 7.94071 8581 ft 276 kts 311°
2026-05-05 18:05 44.78231 7.92120 8267 ft 275 kts 311°
2026-05-05 18:06 44.79549 7.90178 7955 ft 274 kts 311°
2026-05-05 18:06 44.80420 7.88891 7757 ft 274 kts 311°
2026-05-05 18:06 44.82159 7.86325 7360 ft 273 kts 311°
2026-05-05 18:06 44.83482 7.84369 7054 ft 272 kts 312°
2026-05-05 18:07 44.84771 7.82463 6779 ft 271 kts 312°
2026-05-05 18:07 44.86053 7.80567 6655 ft 263 kts 312°
2026-05-05 18:07 44.87300 7.78721 6528 ft 256 kts 312°
2026-05-05 18:07 44.88513 7.76925 6416 ft 249 kts 312°
2026-05-05 18:08 44.89690 7.75181 6301 ft 242 kts 312°
2026-05-05 18:08 44.90829 7.73490 6189 ft 234 kts 312°
2026-05-05 18:08 44.91944 7.71836 5993 ft 231 kts 312°
2026-05-05 18:08 44.93049 7.70194 5766 ft 231 kts 312°
2026-05-05 18:09 44.94155 7.68550 5533 ft 231 kts 312°
2026-05-05 18:09 44.95262 7.66904 5305 ft 230 kts 312°
2026-05-05 18:09 44.96368 7.65261 5057 ft 230 kts 313°
2026-05-05 18:09 44.97692 7.64037 4791 ft 231 kts 347°
2026-05-05 18:10 44.99274 7.63824 4600 ft 225 kts 356°
2026-05-05 18:10 45.00772 7.63770 4495 ft 208 kts
2026-05-05 18:10 45.02192 7.63823 4264 ft 202 kts
2026-05-05 18:10 45.03584 7.63909 4012 ft 199 kts
2026-05-05 18:11 45.04960 7.63999 3738 ft 196 kts
2026-05-05 18:11 45.06309 7.64085 3465 ft 188 kts
2026-05-05 18:11 45.07560 7.64165 3241 ft 172 kts
2026-05-05 18:11 45.08699 7.64238 3043 ft 155 kts
2026-05-05 18:12 45.09742 7.64304 2822 ft 147 kts
2026-05-05 18:12 45.10766 7.64370 2621 ft 147 kts
2026-05-05 18:12 45.11768 7.64433 2429 ft 145 kts
2026-05-05 18:12 45.12790 7.64499 2211 ft 145 kts
2026-05-05 18:13 45.13803 7.64563 2007 ft 146 kts
2026-05-05 18:13 45.14810 7.64627 1794 ft 147 kts
2026-05-05 18:13 45.15836 7.64691 1593 ft 147 kts
2026-05-05 18:13 45.16861 7.64754 1401 ft 148 kts
2026-05-05 18:14 45.17879 7.64819 1196 ft 146 kts
2026-05-05 18:14 45.18894 7.64886 1004 ft 146 kts
2026-05-05 18:14 45.19855 7.64956 962 ft 118 kts
2026-05-05 18:14 45.20464 7.64988 983 ft 64 kts
2026-05-05 18:15 45.20804 7.65003 991 ft 25 kts 344°
2026-05-05 18:15 45.20875 7.64868 992 ft 7 kts 282°
2026-05-05 18:15 45.20864 7.64800 992 ft 8 kts 235°
2026-05-05 18:15 45.20813 7.64751 993 ft 11 kts 199°
2026-05-05 18:16 45.20729 7.64736 989 ft 13 kts 185°
2026-05-05 18:16 45.20643 7.64731 988 ft 13 kts 182°
2026-05-05 18:16 45.20552 7.64726 991 ft 14 kts 182°
2026-05-05 18:16 45.20455 7.64722 984 ft 14 kts 181°
2026-05-05 18:17 45.20356 7.64717 986 ft 16 kts 182°
2026-05-05 18:17 45.20228 7.64710 973 ft 21 kts 182°
2026-05-05 18:17 45.20064 7.64701 968 ft 25 kts 184°
2026-05-05 18:17 45.19878 7.64685 960 ft 28 kts 183°
2026-05-05 18:18 45.19685 7.64699 959 ft 27 kts 182°
2026-05-05 18:18 45.19503 7.64684 954 ft 25 kts 183°
2026-05-05 18:18 45.19340 7.64675 958 ft 23 kts 182°
2026-05-05 18:18 45.19180 7.64666 951 ft 24 kts 183°
2026-05-05 18:19 45.19098 7.64650 948 ft 4 kts 221°
2026-05-05 18:19 45.19080 7.64609 948 ft 7 kts 250°
2026-05-05 18:19 45.19072 7.64555 946 ft 0 kts 259°